Time,TemperatureF,DewpointF,PressureIn,WindDirection,WindDirectionDegrees,WindSpeedMPH,WindSpeedGustMPH,Humidity,HourlyPrecipIn,Conditions,Clouds,dailyrainin,SoftwareType,DateUTC
2013-10-18 00:11:00,54.1,53.0,29.96,NE,38,0.0,-999.0,94,-99.99,,,0.00,weatherlink.com 1.10,2013-10-18 05:11:00,
2013-10-18 00:26:00,53.9,53.0,29.95,NE,38,0.0,-999.0,95,-99.99,,,0.00,weatherlink.com 1.10,2013-10-18 05:26:00,
2013-10-18 00:41:00,53.6,52.0,29.95,NE,38,0.0,-999.0,95,-99.99,,,0.00,weatherlink.com 1.10,2013-10-18 05:41:00,
2013-10-18 00:56:00,53.6,52.0,29.95,NE,38,0.0,-999.0,95,-99.99,,,0.00,weatherlink.com 1.10,2013-10-18 05:56:00,
2013-10-18 01:11:00,53.3,52.0,29.95,NE,38,0.0,-999.0,95,-99.99,,,0.00,weatherlink.com 1.10,2013-10-18 06:11:00,
2013-10-18 01:26:00,53.0,52.0,29.95,NE,38,0.0,-999.0,95,-99.99,,,0.00,weatherlink.com 1.10,2013-10-18 06:26:00,
2013-10-18 01:41:00,52.9,52.0,29.96,NE,38,0.0,-999.0,96,-99.99,,,0.00,weatherlink.com 1.10,2013-10-18 06:41:00,
2013-10-18 01:56:00,52.7,52.0,29.96,NE,38,0.0,-999.0,96,-99.99,,,0.00,weatherlink.com 1.10,2013-10-18 06:56:00,
2013-10-18 02:11:00,52.7,52.0,29.96,NE,38,0.0,-999.0,96,-99.99,,,0.00,weatherlink.com 1.10,2013-10-18 07:11:00,
2013-10-18 02:26:00,52.5,51.0,29.96,NE,38,0.0,-999.0,96,-99.99,,,0.00,weatherlink.com 1.10,2013-10-18 07:26:00,
2013-10-18 02:42:00,52.3,51.0,29.96,NE,38,0.0,-999.0,96,-99.99,,,0.01,weatherlink.com 1.10,2013-10-18 07:42:00,
2013-10-18 02:56:00,52.3,51.0,29.96,NE,38,0.0,-999.0,96,-99.99,,,0.01,weatherlink.com 1.10,2013-10-18 07:56:00,
2013-10-18 03:11:00,52.3,51.0,29.96,NE,38,0.0,-999.0,96,-99.99,,,0.01,weatherlink.com 1.10,2013-10-18 08:11:00,
2013-10-18 03:26:00,52.4,51.0,29.96,South,184,0.0,-999.0,96,-99.99,,,0.01,weatherlink.com 1.10,2013-10-18 08:26:00,
2013-10-18 03:41:00,52.2,51.0,29.97,South,184,0.0,-999.0,96,-99.99,,,0.01,weatherlink.com 1.10,2013-10-18 08:41:00,
2013-10-18 03:56:00,52.1,51.0,29.97,South,184,0.0,-999.0,96,-99.99,,,0.01,weatherlink.com 1.10,2013-10-18 08:56:00,
2013-10-18 04:11:00,52.1,51.0,29.97,South,184,0.0,-999.0,96,-99.99,,,0.01,weatherlink.com 1.10,2013-10-18 09:11:00,
2013-10-18 04:26:00,52.1,51.0,29.98,South,184,0.0,-999.0,96,-99.99,,,0.01,weatherlink.com 1.10,2013-10-18 09:26:00,
2013-10-18 04:41:00,52.2,51.0,29.98,South,184,0.0,-999.0,96,-99.99,,,0.01,weatherlink.com 1.10,2013-10-18 09:41:00,
2013-10-18 04:56:00,52.5,52.0,29.98,South,184,0.0,-999.0,97,-99.99,,,0.01,weatherlink.com 1.10,2013-10-18 09:56:00,
2013-10-18 05:11:00,52.6,52.0,29.98,South,184,0.0,-999.0,96,-99.99,,,0.01,weatherlink.com 1.10,2013-10-18 10:11:00,
2013-10-18 05:27:00,52.7,52.0,29.99,South,184,0.0,-999.0,96,-99.99,,,0.01,weatherlink.com 1.10,2013-10-18 10:27:00,
2013-10-18 05:41:00,52.8,52.0,30.00,South,184,0.0,-999.0,96,-99.99,,,0.01,weatherlink.com 1.10,2013-10-18 10:41:00,
2013-10-18 05:56:00,52.5,51.0,30.00,South,184,0.0,-999.0,96,-99.99,,,0.01,weatherlink.com 1.10,2013-10-18 10:56:00,
2013-10-18 06:11:00,52.5,51.0,30.00,South,184,0.0,-999.0,96,-99.99,,,0.01,weatherlink.com 1.10,2013-10-18 11:11:00,
2013-10-18 06:26:00,52.8,52.0,30.00,South,184,0.0,-999.0,96,-99.99,,,0.01,weatherlink.com 1.10,2013-10-18 11:26:00,
2013-10-18 06:41:00,53.0,52.0,30.00,South,184,0.0,-999.0,96,-99.99,,,0.01,weatherlink.com 1.10,2013-10-18 11:41:00,
2013-10-18 06:56:00,53.2,52.0,30.01,South,184,0.0,-999.0,96,-99.99,,,0.01,weatherlink.com 1.10,2013-10-18 11:56:00,
2013-10-18 07:11:00,53.0,52.0,30.01,South,181,0.0,-999.0,96,-99.99,,,0.01,weatherlink.com 1.10,2013-10-18 12:11:00,
2013-10-18 07:26:00,53.5,52.0,30.01,NW,324,0.0,-999.0,95,-99.99,,,0.01,weatherlink.com 1.10,2013-10-18 12:26:00,
2013-10-18 07:41:00,53.8,52.0,30.02,NNE,22,0.0,-999.0,94,-99.99,,,0.01,weatherlink.com 1.10,2013-10-18 12:41:00,
2013-10-18 07:56:00,54.4,53.0,30.02,NNW,346,0.0,-999.0,94,-99.99,,,0.01,weatherlink.com 1.10,2013-10-18 12:56:00,
2013-10-18 08:12:00,55.0,53.0,30.03,NNW,346,0.0,-999.0,93,-99.99,,,0.01,weatherlink.com 1.10,2013-10-18 13:12:00,
2013-10-18 08:26:00,55.3,53.0,30.04,NNW,340,0.0,-999.0,92,-99.99,,,0.01,weatherlink.com 1.10,2013-10-18 13:26:00,
2013-10-18 08:41:00,54.9,52.0,30.04,NNE,15,0.0,-999.0,90,-99.99,,,0.01,weatherlink.com 1.10,2013-10-18 13:41:00,
2013-10-18 08:56:00,55.9,53.0,30.04,NNW,344,0.0,-999.0,90,-99.99,,,0.01,weatherlink.com 1.10,2013-10-18 13:56:00,
2013-10-18 09:11:00,56.1,53.0,30.05,NNW,336,1.0,-999.0,89,-99.99,,,0.01,weatherlink.com 1.10,2013-10-18 14:11:00,
2013-10-18 09:26:00,56.7,54.0,30.05,NW,325,0.0,-999.0,89,-99.99,,,0.01,weatherlink.com 1.10,2013-10-18 14:26:00,
2013-10-18 09:41:00,56.8,53.0,30.05,North,360,0.0,-999.0,88,-99.99,,,0.01,weatherlink.com 1.10,2013-10-18 14:41:00,
2013-10-18 09:56:00,56.8,53.0,30.05,North,5,4.0,-999.0,86,-99.99,,,0.01,weatherlink.com 1.10,2013-10-18 14:56:00,
2013-10-18 10:11:00,57.4,53.0,30.05,NW,323,6.0,-999.0,84,-99.99,,,0.01,weatherlink.com 1.10,2013-10-18 15:11:00,
2013-10-18 10:26:00,57.8,53.0,30.05,WNW,295,0.0,-999.0,84,-99.99,,,0.01,weatherlink.com 1.10,2013-10-18 15:26:00,
2013-10-18 10:41:00,58.5,53.0,30.05,NNW,344,1.0,-999.0,82,-99.99,,,0.01,weatherlink.com 1.10,2013-10-18 15:41:00,
2013-10-18 10:57:00,58.9,53.0,30.05,NW,316,8.0,-999.0,82,-99.99,,,0.01,weatherlink.com 1.10,2013-10-18 15:57:00,
2013-10-18 11:11:00,60.0,53.0,30.04,North,355,0.0,-999.0,77,-99.99,,,0.01,weatherlink.com 1.10,2013-10-18 16:11:00,
2013-10-18 11:26:00,60.9,53.0,30.03,NNW,332,8.0,-999.0,74,-99.99,,,0.01,weatherlink.com 1.10,2013-10-18 16:26:00,
2013-10-18 11:41:00,60.9,51.0,30.03,NNW,346,5.0,-999.0,70,-99.99,,,0.01,weatherlink.com 1.10,2013-10-18 16:41:00,
2013-10-18 11:56:00,61.8,51.0,30.02,North,10,6.0,-999.0,69,-99.99,,,0.01,weatherlink.com 1.10,2013-10-18 16:56:00,
2013-10-18 12:11:00,62.3,52.0,30.02,NNE,22,6.0,-999.0,68,-99.99,,,0.01,weatherlink.com 1.10,2013-10-18 17:11:00,
2013-10-18 12:26:00,63.6,52.0,30.01,NW,304,6.0,-999.0,66,-99.99,,,0.01,weatherlink.com 1.10,2013-10-18 17:26:00,
2013-10-18 12:41:00,63.5,52.0,30.00,North,5,0.0,-999.0,66,-99.99,,,0.01,weatherlink.com 1.10,2013-10-18 17:41:00,
2013-10-18 12:56:00,64.1,52.0,30.00,NNE,14,0.0,-999.0,65,-99.99,,,0.01,weatherlink.com 1.10,2013-10-18 17:56:00,
2013-10-18 13:11:00,63.9,51.0,29.99,NNE,19,6.0,-999.0,63,-99.99,,,0.01,weatherlink.com 1.10,2013-10-18 18:11:00,
2013-10-18 13:26:00,64.7,53.0,29.98,NE,44,0.0,-999.0,65,-99.99,,,0.01,weatherlink.com 1.10,2013-10-18 18:26:00,
2013-10-18 13:42:00,65.4,52.0,29.97,North,11,0.0,-999.0,62,-99.99,,,0.01,weatherlink.com 1.10,2013-10-18 18:42:00,
2013-10-18 13:56:00,66.2,52.0,29.97,NNW,331,1.0,-999.0,60,-99.99,,,0.01,weatherlink.com 1.10,2013-10-18 18:56:00,
2013-10-18 14:11:00,66.4,51.0,29.96,NW,311,0.0,-999.0,59,-99.99,,,0.01,weatherlink.com 1.10,2013-10-18 19:11:00,
2013-10-18 14:26:00,66.6,53.0,29.96,North,360,0.0,-999.0,61,-99.99,,,0.01,weatherlink.com 1.10,2013-10-18 19:26:00,
2013-10-18 14:41:00,66.9,51.0,29.95,North,360,2.0,-999.0,58,-99.99,,,0.01,weatherlink.com 1.10,2013-10-18 19:41:00,
2013-10-18 14:56:00,66.3,51.0,29.95,North,5,4.0,-999.0,59,-99.99,,,0.01,weatherlink.com 1.10,2013-10-18 19:56:00,
2013-10-18 15:11:00,66.8,51.0,29.94,North,360,0.0,-999.0,58,-99.99,,,0.01,weatherlink.com 1.10,2013-10-18 20:11:00,
2013-10-18 15:26:00,67.4,51.0,29.95,NE,46,0.0,-999.0,57,-99.99,,,0.01,weatherlink.com 1.10,2013-10-18 20:26:00,
2013-10-18 15:41:00,67.2,50.0,29.94,NW,306,1.0,-999.0,55,-99.99,,,0.01,weatherlink.com 1.10,2013-10-18 20:41:00,
2013-10-18 15:56:00,66.8,52.0,29.94,NNW,330,5.0,-999.0,60,-99.99,,,0.01,weatherlink.com 1.10,2013-10-18 20:56:00,
2013-10-18 16:11:00,65.7,52.0,29.93,NW,304,0.0,-999.0,61,-99.99,,,0.01,weatherlink.com 1.10,2013-10-18 21:11:00,
2013-10-18 16:27:00,66.0,52.0,29.93,NW,326,0.0,-999.0,60,-99.99,,,0.01,weatherlink.com 1.10,2013-10-18 21:27:00,
2013-10-18 16:41:00,66.3,52.0,29.93,NNW,342,1.0,-999.0,60,-99.99,,,0.01,weatherlink.com 1.10,2013-10-18 21:41:00,
2013-10-18 16:56:00,65.5,52.0,29.93,NW,306,0.0,-999.0,61,-99.99,,,0.01,weatherlink.com 1.10,2013-10-18 21:56:00,
2013-10-18 17:11:00,65.8,53.0,29.93,NW,306,0.0,-999.0,63,-99.99,,,0.01,weatherlink.com 1.10,2013-10-18 22:11:00,
2013-10-18 17:26:00,65.1,53.0,29.92,NW,304,2.0,-999.0,65,-99.99,,,0.01,weatherlink.com 1.10,2013-10-18 22:26:00,
2013-10-18 17:41:00,63.7,53.0,29.93,NNW,327,0.0,-999.0,68,-99.99,,,0.01,weatherlink.com 1.10,2013-10-18 22:41:00,
2013-10-18 17:56:00,61.8,54.0,29.93,NNW,327,0.0,-999.0,75,-99.99,,,0.01,weatherlink.com 1.10,2013-10-18 22:56:00,
2013-10-18 18:11:00,59.8,54.0,29.94,NNW,327,0.0,-999.0,80,-99.99,,,0.01,weatherlink.com 1.10,2013-10-18 23:11:00,
2013-10-18 18:26:00,58.5,53.0,29.94,NNW,327,0.0,-999.0,83,-99.99,,,0.01,weatherlink.com 1.10,2013-10-18 23:26:00,
2013-10-18 18:41:00,57.8,53.0,29.94,NNW,327,0.0,-999.0,85,-99.99,,,0.01,weatherlink.com 1.10,2013-10-18 23:41:00,
2013-10-18 18:56:00,57.4,53.0,29.94,NNW,327,0.0,-999.0,86,-99.99,,,0.01,weatherlink.com 1.10,2013-10-18 23:56:00,
2013-10-18 19:12:00,56.7,53.0,29.94,NNW,327,0.0,-999.0,87,-99.99,,,0.01,weatherlink.com 1.10,2013-10-19 00:12:00,
2013-10-18 19:26:00,56.6,54.0,29.95,NNW,327,0.0,-999.0,89,-99.99,,,0.01,weatherlink.com 1.10,2013-10-19 00:26:00,
2013-10-18 19:41:00,56.3,53.0,29.94,NNW,327,0.0,-999.0,89,-99.99,,,0.01,weatherlink.com 1.10,2013-10-19 00:41:00,
2013-10-18 19:56:00,55.9,53.0,29.95,NNW,327,0.0,-999.0,89,-99.99,,,0.01,weatherlink.com 1.10,2013-10-19 00:56:00,
2013-10-18 20:11:00,55.3,53.0,29.94,NNW,327,0.0,-999.0,90,-99.99,,,0.01,weatherlink.com 1.10,2013-10-19 01:11:00,
2013-10-18 20:26:00,55.2,53.0,29.95,NNW,327,0.0,-999.0,91,-99.99,,,0.01,weatherlink.com 1.10,2013-10-19 01:26:00,
2013-10-18 20:41:00,55.2,53.0,29.96,NNW,327,0.0,-999.0,91,-99.99,,,0.01,weatherlink.com 1.10,2013-10-19 01:41:00,
2013-10-18 20:56:00,55.0,52.0,29.96,NNW,327,0.0,-999.0,90,-99.99,,,0.01,weatherlink.com 1.10,2013-10-19 01:56:00,
2013-10-18 21:11:00,55.2,52.0,29.98,NNW,327,0.0,-999.0,89,-99.99,,,0.01,weatherlink.com 1.10,2013-10-19 02:11:00,
2013-10-18 21:26:00,55.0,52.0,29.98,NNW,327,0.0,-999.0,89,-99.99,,,0.01,weatherlink.com 1.10,2013-10-19 02:26:00,
2013-10-18 21:41:00,54.9,52.0,29.98,NNW,327,0.0,-999.0,90,-99.99,,,0.01,weatherlink.com 1.10,2013-10-19 02:41:00,
2013-10-18 21:57:00,54.6,52.0,29.98,NNW,327,0.0,-999.0,90,-99.99,,,0.01,weatherlink.com 1.10,2013-10-19 02:57:00,
2013-10-18 22:11:00,54.5,52.0,29.99,NNW,327,0.0,-999.0,91,-99.99,,,0.01,weatherlink.com 1.10,2013-10-19 03:11:00,
2013-10-18 22:26:00,54.8,52.0,29.99,NNW,327,0.0,-999.0,90,-99.99,,,0.01,weatherlink.com 1.10,2013-10-19 03:26:00,
2013-10-18 22:41:00,55.0,53.0,29.99,NNW,327,0.0,-999.0,91,-99.99,,,0.01,weatherlink.com 1.10,2013-10-19 03:41:00,
2013-10-18 22:56:00,55.1,53.0,29.98,NNW,327,0.0,-999.0,91,-99.99,,,0.01,weatherlink.com 1.10,2013-10-19 03:56:00,
2013-10-18 23:11:00,55.1,53.0,29.98,NNW,327,0.0,-999.0,91,-99.99,,,0.01,weatherlink.com 1.10,2013-10-19 04:11:00,
2013-10-18 23:26:00,54.8,53.0,29.97,NNW,327,0.0,-999.0,92,-99.99,,,0.01,weatherlink.com 1.10,2013-10-19 04:26:00,
2013-10-18 23:41:00,54.9,53.0,29.97,NNW,327,0.0,-999.0,92,-99.99,,,0.01,weatherlink.com 1.10,2013-10-19 04:41:00,
2013-10-18 23:56:00,54.8,53.0,29.96,NNW,327,0.0,-999.0,92,-99.99,,,0.01,weatherlink.com 1.10,2013-10-19 04:56:00,